User: anonymous   Login
Location: Albany
(35.0000°S, 118.0000°E)
Time: 09:29:01
(UTC-04:00)
Language:

JAS-1B - Orbit

View from above orbital plane
View from above orbital plane
View from above satellite
View from above satellite

Ground track
Ground track

The orbit data is extracted from the following two-line orbital elements,

1 20480U 90013C   18176.18300738 -.00000044  00000-0 -17304-4 0  9999
2 20480  99.0586 244.9419 0539290 266.6144  87.3154 12.83418643329566
Epoch (UTC): 25 June 2018 04:23:31
Eccentricity: 0.0539290
inclination: 99.0586°
perigee height: 912 km
apogee height: 1743 km
right ascension of ascending node: 244.9419°
argument of perigee: 266.6144°
revolutions per day: 12.83418643
mean anomaly at epoch: 87.3154°
orbit number at epoch: 32956

The dashed part of the orbit path shows where the satellite is in the earth's shadow,  

DLR